| time (UTC) | temp F | wind direction | speed MPH | gust MPH | rain 1hr in | rain 24hr in | rain mn in | humidity % | barometer mb |
| 20260906111128 | 76 | 50 | 0.0 | 2.0 | 0.00 | 0.14 | 0.00 | 86 | 1013.0 |
| 20260906110630 | 76 | 50 | 0.0 | 5.0 | 0.00 | 0.14 | 0.00 | 86 | 1013.1 |
| 20260906110129 | 76 | 50 | 3.0 | 5.0 | 0.00 | 0.14 | 0.00 | 86 | 1013.1 |
| 20260906105652 | 76 | 18 | 3.0 | 8.0 | 0.00 | 0.14 | 0.00 | 86 | 1013.2 |
| 20260906105126 | 76 | 17 | 4.0 | 8.0 | 0.00 | 0.14 | 0.00 | 86 | 1013.2 |
| 20260906104628 | 76 | 26 | 3.0 | 6.0 | 0.00 | 0.14 | 0.00 | 86 | 1013.3 |
| 20260906104127 | 76 | 56 | 3.0 | 13.0 | 0.00 | 0.14 | 0.00 | 86 | 1013.3 |
| 20260906103629 | 76 | 40 | 2.0 | 13.0 | 0.00 | 0.14 | 0.00 | 87 | 1013.3 |
| 20260906103128 | 76 | 36 | 5.0 | 11.0 | 0.00 | 0.14 | 0.00 | 87 | 1013.2 |
| 20260906102631 | 76 | 5 | 7.0 | 13.0 | 0.00 | 0.14 | 0.00 | 88 | 1013.4 |
| 20260906102112 | 77 | 355 | 8.0 | 14.0 | 0.00 | 0.14 | 0.00 | 90 | 1013.3 |
| 20260906101612 | 77 | 360 | 6.0 | 14.0 | 0.00 | 0.14 | 0.00 | 91 | 1013.3 |
| 20260906101148 | 78 | 347 | 6.0 | 13.0 | 0.00 | 0.14 | 0.00 | 91 | 1013.2 |
| 20260906100627 | 78 | 306 | 4.0 | 6.0 | 0.00 | 0.14 | 0.00 | 90 | 1013.0 |
| 20260906100128 | 78 | 23 | 4.0 | 9.0 | 0.00 | 0.14 | 0.00 | 90 | 1012.9 |
| 20260906095627 | 78 | 329 | 4.0 | 9.0 | 0.00 | 0.14 | 0.00 | 90 | 1012.8 |
| 20260906095127 | 78 | 303 | 4.0 | 5.0 | 0.00 | 0.14 | 0.00 | 90 | 1012.8 |
| 20260906094652 | 78 | 296 | 2.0 | 4.0 | 0.00 | 0.14 | 0.00 | 90 | 1012.5 |
| 20260906094119 | 78 | 300 | 2.0 | 5.0 | 0.00 | 0.14 | 0.00 | 90 | 1012.4 |
| 20260906093620 | 78 | 283 | 1.0 | 5.0 | 0.00 | 0.14 | 0.00 | 90 | 1012.5 |
| 20260906093143 | 78 | 313 | 3.0 | 8.0 | 0.00 | 0.14 | 0.00 | 90 | 1012.5 |
| 20260906092619 | 78 | 297 | 4.0 | 8.0 | 0.00 | 0.14 | 0.00 | 90 | 1012.4 |
| 20260906092121 | 78 | 259 | 3.0 | 8.0 | 0.00 | 0.14 | 0.00 | 90 | 1012.4 |
| 20260906091623 | 78 | 285 | 3.0 | 7.0 | 0.00 | 0.14 | 0.00 | 90 | 1012.3 |
| 20260906091124 | 77 | 287 | 2.0 | 6.0 | 0.00 | 0.14 | 0.00 | 91 | 1012.1 |
| 20260906090644 | 77 | 319 | 2.0 | 5.0 | 0.00 | 0.14 | 0.00 | 91 | 1012.2 |
| 20260906090122 | 77 | 299 | 2.0 | 9.0 | 0.00 | 0.14 | 0.00 | 91 | 1012.3 |
| 20260906085622 | 77 | 308 | 4.0 | 13.0 | 0.00 | 0.14 | 0.00 | 91 | 1012.2 |
| 20260906085127 | 77 | 313 | 5.0 | 13.0 | 0.00 | 0.14 | 0.00 | 92 | 1012.1 |
| 20260906084627 | 77 | 323 | 7.0 | 12.0 | 0.00 | 0.14 | 0.00 | 92 | 1012.2 |
| 20260906084130 | 77 | 302 | 7.0 | 12.0 | 0.00 | 0.14 | 0.00 | 92 | 1012.4 |
| 20260906083151 | 77 | 319 | 7.0 | 12.0 | 0.00 | 0.14 | 0.00 | 93 | 1012.4 |
| 20260906082626 | 77 | 307 | 6.0 | 13.0 | 0.00 | 0.14 | 0.00 | 93 | 1012.5 |
| 20260906082114 | 77 | 321 | 8.0 | 13.0 | 0.00 | 0.14 | 0.00 | 93 | 1012.6 |
| 20260906081617 | 77 | 318 | 6.0 | 9.0 | 0.00 | 0.14 | 0.00 | 93 | 1012.7 |
| 20260906081117 | 77 | 327 | 7.0 | 10.0 | 0.00 | 0.14 | 0.00 | 93 | 1012.8 |
| 20260906080615 | 77 | 319 | 6.0 | 11.0 | 0.00 | 0.14 | 0.00 | 93 | 1012.8 |
| 20260906080118 | 77 | 298 | 8.0 | 13.0 | 0.00 | 0.14 | 0.00 | 93 | 1012.7 |
| 20260906075617 | 77 | 329 | 7.0 | 13.0 | 0.00 | 0.14 | 0.00 | 93 | 1012.5 |
| 20260906075119 | 77 | 309 | 8.0 | 12.0 | 0.00 | 0.14 | 0.00 | 93 | 1012.3 |
| 20260906074640 | 77 | 304 | 6.0 | 10.0 | 0.00 | 0.14 | 0.00 | 93 | 1012.1 |
| 20260906074122 | 77 | 275 | 5.0 | 9.0 | 0.00 | 0.14 | 0.00 | 93 | 1012.3 |
| 20260906073624 | 77 | 288 | 5.0 | 10.0 | 0.00 | 0.14 | 0.00 | 93 | 1012.2 |
| 20260906073124 | 77 | 294 | 5.0 | 10.0 | 0.00 | 0.14 | 0.00 | 93 | 1012.3 |
| 20260906072642 | 77 | 303 | 4.0 | 9.0 | 0.00 | 0.14 | 0.00 | 93 | 1012.4 |
| 20260906072126 | 77 | 291 | 4.0 | 11.0 | 0.00 | 0.14 | 0.00 | 93 | 1012.4 |
| 20260906071624 | 77 | 283 | 3.0 | 11.0 | 0.00 | 0.14 | 0.00 | 93 | 1012.3 |
| 20260906071126 | 76 | 311 | 5.0 | 10.0 | 0.00 | 0.14 | 0.00 | 92 | 1012.4 |
| 20260906070628 | 76 | 300 | 4.0 | 9.0 | 0.00 | 0.14 | 0.00 | 92 | 1012.2 |
| 20260906070151 | 76 | 292 | 4.0 | 9.0 | 0.00 | 0.14 | 0.00 | 92 | 1012.2 |
| 20260906065631 | 76 | 315 | 6.0 | 10.0 | 0.00 | 0.14 | 0.00 | 92 | 1012.3 |
| 20260906065116 | 76 | 321 | 6.0 | 10.0 | 0.00 | 0.14 | 0.00 | 92 | 1012.4 |
| 20260906064617 | 76 | 308 | 5.0 | 11.0 | 0.00 | 0.14 | 0.00 | 91 | 1012.5 |
| 20260906064118 | 76 | 321 | 6.0 | 11.0 | 0.00 | 0.14 | 0.00 | 91 | 1012.6 |
| 20260906063642 | 76 | 316 | 4.0 | 8.0 | 0.00 | 0.14 | 0.00 | 90 | 1012.7 |
| 20260906063121 | 76 | 284 | 4.0 | 8.0 | 0.00 | 0.14 | 0.00 | 90 | 1012.8 |
| 20260906062618 | 77 | 294 | 4.0 | 8.0 | 0.00 | 0.14 | 0.00 | 90 | 1012.8 |
| 20260906062120 | 77 | 306 | 4.0 | 6.0 | 0.00 | 0.14 | 0.00 | 89 | 1012.8 |
| 20260906061621 | 77 | 315 | 4.0 | 5.0 | 0.00 | 0.14 | 0.00 | 89 | 1012.9 |
| 20260906061147 | 77 | 301 | 2.0 | 4.0 | 0.00 | 0.14 | 0.00 | 89 | 1013.1 |
| 20260906060628 | 77 | 295 | 3.0 | 3.0 | 0.00 | 0.14 | 0.00 | 88 | 1013.0 |
| 20260906060128 | 77 | 277 | 1.0 | 3.0 | 0.00 | 0.14 | 0.00 | 88 | 1013.1 |
| 20260906055630 | 77 | 335 | 2.0 | 3.0 | 0.00 | 0.14 | 0.00 | 87 | 1013.1 |
| 20260906055130 | 78 | 335 | 2.0 | 3.0 | 0.00 | 0.14 | 0.00 | 87 | 1013.1 |
| 20260906054617 | 78 | 335 | 2.0 | 3.0 | 0.00 | 0.14 | 0.00 | 87 | 1013.0 |
| 20260906054119 | 78 | 335 | 2.0 | 3.0 | 0.00 | 0.14 | 0.00 | 87 | 1013.1 |
| 20260906053644 | 78 | 335 | 1.0 | 3.0 | 0.00 | 0.14 | 0.00 | 87 | 1013.2 |
| 20260906053141 | 78 | 335 | 2.0 | 3.0 | 0.00 | 0.14 | 0.00 | 87 | 1013.2 |
| 20260906052624 | 78 | 335 | 2.0 | 3.0 | 0.00 | 0.14 | 0.00 | 87 | 1013.3 |
| 20260906052126 | 78 | 335 | 2.0 | 3.0 | 0.00 | 0.14 | 0.00 | 86 | 1013.4 |
| 20260906051626 | 78 | 335 | 2.0 | 3.0 | 0.00 | 0.14 | 0.00 | 86 | 1013.3 |
| 20260906051128 | 78 | 335 | 2.0 | 3.0 | 0.00 | 0.14 | 0.00 | 86 | 1013.3 |
| 20260906050629 | 78 | 327 | 1.0 | 3.0 | 0.00 | 0.14 | 0.00 | 86 | 1013.6 |
| 20260906050128 | 78 | 328 | 0.0 | 1.0 | 0.00 | 0.14 | 0.00 | 86 | 1013.5 |
| 20260906045612 | 79 | 5 | 0.0 | 3.0 | 0.00 | 0.14 | 0.14 | 86 | 1013.4 |
| 20260906045117 | 79 | 5 | 1.0 | 3.0 | 0.00 | 0.14 | 0.14 | 85 | 1013.2 |
| 20260906044618 | 79 | 200 | 1.0 | 4.0 | 0.00 | 0.14 | 0.14 | 85 | 1013.2 |
| 20260906044141 | 79 | 214 | 2.0 | 4.0 | 0.00 | 0.14 | 0.14 | 85 | 1013.2 |
| 20260906043622 | 78 | 190 | 2.0 | 4.0 | 0.00 | 0.14 | 0.14 | 86 | 1013.3 |
| 20260906043115 | 78 | 209 | 2.0 | 5.0 | 0.00 | 0.14 | 0.14 | 86 | 1013.2 |
| 20260906042637 | 78 | 247 | 2.0 | 5.0 | 0.00 | 0.14 | 0.14 | 86 | 1013.3 |
| 20260906042121 | 78 | 192 | 2.0 | 5.0 | 0.00 | 0.14 | 0.14 | 87 | 1013.3 |
| 20260906041624 | 78 | 273 | 2.0 | 7.0 | 0.00 | 0.14 | 0.14 | 87 | 1013.3 |
| 20260906041125 | 78 | 261 | 2.0 | 7.0 | 0.00 | 0.14 | 0.14 | 87 | 1013.2 |
| 20260906040626 | 78 | 223 | 3.0 | 7.0 | 0.00 | 0.14 | 0.14 | 87 | 1013.3 |
| 20260906040152 | 78 | 270 | 2.0 | 5.0 | 0.00 | 0.14 | 0.14 | 87 | 1013.3 |
| 20260906035630 | 78 | 271 | 3.0 | 7.0 | 0.00 | 0.14 | 0.14 | 87 | 1013.0 |
| 20260906035113 | 78 | 275 | 3.0 | 7.0 | 0.00 | 0.14 | 0.14 | 87 | 1013.2 |
| 20260906034629 | 78 | 282 | 3.0 | 7.0 | 0.00 | 0.14 | 0.14 | 87 | 1013.2 |
| 20260906034131 | 78 | 294 | 3.0 | 7.0 | 0.00 | 0.14 | 0.14 | 86 | 1013.2 |
| 20260906033612 | 79 | 291 | 3.0 | 5.0 | 0.00 | 0.14 | 0.14 | 86 | 1013.3 |
| 20260906033114 | 79 | 273 | 3.0 | 6.0 | 0.00 | 0.14 | 0.14 | 86 | 1013.3 |
| 20260906032614 | 79 | 226 | 3.0 | 6.0 | 0.00 | 0.14 | 0.14 | 86 | 1013.2 |
| 20260906032117 | 79 | 271 | 3.0 | 5.0 | 0.00 | 0.14 | 0.14 | 85 | 1013.2 |
| 20260906031619 | 79 | 269 | 2.0 | 5.0 | 0.00 | 0.14 | 0.14 | 85 | 1013.2 |
| 20260906031121 | 79 | 263 | 3.0 | 5.0 | 0.00 | 0.14 | 0.14 | 85 | 1013.2 |
| 20260906030623 | 80 | 286 | 3.0 | 5.0 | 0.00 | 0.14 | 0.14 | 84 | 1013.2 |
| 20260906030124 | 80 | 282 | 2.0 | 4.0 | 0.00 | 0.14 | 0.14 | 84 | 1013.2 |
| 20260906025612 | 80 | 296 | 2.0 | 7.0 | 0.00 | 0.14 | 0.14 | 83 | 1013.2 |
| 20260906025133 | 80 | 245 | 2.0 | 7.0 | 0.00 | 0.14 | 0.14 | 83 | 1013.3 |
| 20260906024613 | 80 | 229 | 2.0 | 4.0 | 0.00 | 0.14 | 0.14 | 83 | 1013.1 |
| 20260906024113 | 80 | 227 | 2.0 | 4.0 | 0.00 | 0.14 | 0.14 | 83 | 1013.1 |
| 20260906023631 | 80 | 239 | 1.0 | 6.0 | 0.00 | 0.14 | 0.14 | 83 | 1013.2 |
| 20260906023117 | 80 | 270 | 2.0 | 7.0 | 0.00 | 0.14 | 0.14 | 82 | 1013.1 |
| 20260906022630 | 80 | 245 | 2.0 | 7.0 | 0.00 | 0.14 | 0.14 | 82 | 1013.1 |
| 20260906022114 | 80 | 200 | 3.0 | 5.0 | 0.00 | 0.14 | 0.14 | 82 | 1013.0 |
| 20260906021616 | 81 | 182 | 2.0 | 4.0 | 0.00 | 0.14 | 0.14 | 81 | 1013.1 |
| 20260906021118 | 81 | 214 | 1.0 | 3.0 | 0.00 | 0.14 | 0.14 | 81 | 1013.1 |
| 20260906020620 | 81 | 252 | 1.0 | 2.0 | 0.00 | 0.14 | 0.14 | 80 | 1013.1 |
| 20260906020120 | 81 | 270 | 1.0 | 4.0 | 0.00 | 0.14 | 0.14 | 80 | 1013.1 |
| 20260906015620 | 81 | 219 | 2.0 | 4.0 | 0.00 | 0.14 | 0.14 | 80 | 1013.1 |
| 20260906015123 | 81 | 218 | 2.0 | 5.0 | 0.00 | 0.14 | 0.14 | 80 | 1012.7 |
| 20260906014642 | 81 | 263 | 1.0 | 5.0 | 0.00 | 0.14 | 0.14 | 80 | 1012.4 |
| 20260906014122 | 81 | 213 | 2.0 | 4.0 | 0.00 | 0.14 | 0.14 | 80 | 1012.5 |
| 20260906013624 | 81 | 200 | 1.0 | 6.0 | 0.00 | 0.14 | 0.14 | 81 | 1012.4 |
| 20260906013124 | 81 | 226 | 2.0 | 6.0 | 0.00 | 0.14 | 0.14 | 81 | 1012.2 |
| 20260906012620 | 81 | 232 | 2.0 | 4.0 | 0.00 | 0.14 | 0.14 | 81 | 1012.2 |
| 20260906012121 | 81 | 207 | 1.0 | 4.0 | 0.00 | 0.14 | 0.14 | 82 | 1012.1 |
| 20260906011622 | 82 | 244 | 1.0 | 5.0 | 0.00 | 0.14 | 0.14 | 82 | 1012.0 |
| 20260906011123 | 82 | 246 | 2.0 | 8.0 | 0.00 | 0.14 | 0.14 | 81 | 1011.9 |
| 20260906010624 | 82 | 237 | 3.0 | 8.0 | 0.00 | 0.14 | 0.14 | 81 | 1011.9 |
| 20260906010127 | 82 | 196 | 3.0 | 7.0 | 0.00 | 0.14 | 0.14 | 81 | 1011.8 |
| 20260906005650 | 82 | 248 | 2.0 | 5.0 | 0.00 | 0.14 | 0.14 | 82 | 1011.8 |
| 20260906005130 | 82 | 236 | 2.0 | 7.0 | 0.00 | 0.14 | 0.14 | 82 | 1011.8 |
| 20260906004626 | 82 | 238 | 2.0 | 7.0 | 0.00 | 0.14 | 0.14 | 82 | 1011.8 |
| 20260906004146 | 82 | 243 | 2.0 | 6.0 | 0.00 | 0.14 | 0.14 | 82 | 1011.9 |
| 20260906003623 | 82 | 209 | 2.0 | 6.0 | 0.00 | 0.14 | 0.14 | 82 | 1011.9 |
| 20260906003124 | 82 | 219 | 2.0 | 7.0 | 0.00 | 0.14 | 0.14 | 82 | 1011.8 |
| 20260906002650 | 82 | 244 | 2.0 | 7.0 | 0.00 | 0.14 | 0.14 | 82 | 1012.0 |
| 20260906002128 | 82 | 229 | 2.0 | 5.0 | 0.00 | 0.14 | 0.14 | 82 | 1011.9 |
| 20260906001626 | 83 | 140 | 2.0 | 5.0 | 0.00 | 0.14 | 0.14 | 81 | 1011.9 |
| 20260906001148 | 83 | 182 | 3.0 | 5.0 | 0.00 | 0.14 | 0.14 | 81 | 1012.0 |
| 20260906000630 | 83 | 190 | 2.0 | 5.0 | 0.00 | 0.14 | 0.14 | 80 | 1011.9 |
| 20260906000135 | 84 | 217 | 3.0 | 6.0 | 0.00 | 0.14 | 0.14 | 80 | 1012.1 |
| 20260905235618 | 84 | 161 | 3.0 | 10.0 | 0.00 | 0.14 | 0.14 | 79 | 1012.0 |
| 20260905235116 | 85 | 229 | 4.0 | 10.0 | 0.00 | 0.14 | 0.14 | 79 | 1012.1 |
| 20260905234618 | 85 | 208 | 2.0 | 7.0 | 0.00 | 0.14 | 0.14 | 78 | 1012.2 |
| 20260905234120 | 85 | 214 | 2.0 | 7.0 | 0.00 | 0.14 | 0.14 | 78 | 1012.1 |
| 20260905233620 | 86 | 163 | 4.0 | 8.0 | 0.00 | 0.14 | 0.14 | 78 | 1012.2 |
| 20260905233121 | 86 | 194 | 4.0 | 8.0 | 0.00 | 0.14 | 0.14 | 78 | 1012.2 |
| 20260905232623 | 86 | 219 | 3.0 | 6.0 | 0.00 | 0.14 | 0.14 | 78 | 1012.1 |
| 20260905232123 | 86 | 208 | 2.0 | 8.0 | 0.00 | 0.14 | 0.14 | 78 | 1012.1 |
| 20260905231624 | 86 | 191 | 3.0 | 8.0 | 0.00 | 0.14 | 0.14 | 78 | 1012.0 |
| 20260905231122 | 86 | 180 | 4.0 | 11.0 | 0.00 | 0.14 | 0.14 | 77 | 1011.9 |
| 20260905230642 | 86 | 214 | 4.0 | 11.0 | 0.00 | 0.14 | 0.14 | 77 | 1011.9 |
| 20260905230145 | 86 | 221 | 3.0 | 8.0 | 0.00 | 0.14 | 0.14 | 77 | 1012.0 |
| 20260905225620 | 86 | 212 | 3.0 | 7.0 | 0.00 | 0.14 | 0.14 | 77 | 1012.0 |
| 20260905225117 | 87 | 209 | 3.0 | 7.0 | 0.00 | 0.14 | 0.14 | 76 | 1011.8 |
| 20260905224640 | 87 | 196 | 4.0 | 9.0 | 0.00 | 0.14 | 0.14 | 76 | 1011.8 |
| 20260905224120 | 87 | 207 | 3.0 | 9.0 | 0.01 | 0.14 | 0.14 | 75 | 1011.6 |
| 20260905223620 | 87 | 236 | 3.0 | 7.0 | 0.10 | 0.14 | 0.14 | 75 | 1011.7 |
| 20260905223141 | 87 | 203 | 3.0 | 9.0 | 0.14 | 0.14 | 0.14 | 75 | 1011.8 |
| 20260905222625 | 88 | 194 | 5.0 | 9.0 | 0.14 | 0.14 | 0.14 | 75 | 1011.6 |
| 20260905222151 | 87 | 259 | 3.0 | 9.0 | 0.14 | 0.14 | 0.14 | 78 | 1011.8 |
| 20260905221611 | 87 | 221 | 2.0 | 7.0 | 0.14 | 0.14 | 0.14 | 79 | 1011.8 |
| 20260905221112 | 87 | 219 | 2.0 | 7.0 | 0.14 | 0.14 | 0.14 | 82 | 1011.8 |
| 20260905220620 | 86 | 187 | 3.0 | 7.0 | 0.14 | 0.14 | 0.14 | 83 | 1011.7 |
| 20260905220117 | 86 | 157 | 4.0 | 7.0 | 0.14 | 0.14 | 0.14 | 83 | 1011.7 |
| 20260905215640 | 86 | 166 | 4.0 | 9.0 | 0.14 | 0.14 | 0.14 | 83 | 1011.7 |
| 20260905215138 | 86 | 147 | 4.0 | 10.0 | 0.14 | 0.14 | 0.14 | 80 | 1011.6 |
| 20260905214617 | 87 | 183 | 7.0 | 13.0 | 0.14 | 0.14 | 0.14 | 76 | 1011.6 |
| 20260905214119 | 90 | 190 | 9.0 | 13.0 | 0.13 | 0.13 | 0.13 | 72 | 1011.8 |
| 20260905213644 | 93 | 140 | 8.0 | 12.0 | 0.02 | 0.02 | 0.02 | 69 | 1012.0 |
| 20260905213124 | 93 | 159 | 6.0 | 15.0 | 0.00 | 0.00 | 0.00 | 64 | 1011.7 |
| 20260905212643 | 94 | 173 | 10.0 | 16.0 | 0.00 | 0.00 | 0.00 | 63 | 1011.7 |
| 20260905212125 | 94 | 153 | 9.0 | 14.0 | 0.00 | 0.00 | 0.00 | 63 | 1012.0 |
| 20260905211646 | 94 | 202 | 9.0 | 11.0 | 0.00 | 0.00 | 0.00 | 61 | 1011.8 |
| 20260905211125 | 95 | 172 | 5.0 | 10.0 | 0.00 | 0.00 | 0.00 | 59 | 1011.8 |
| 20260905210626 | 96 | 175 | 6.0 | 8.0 | 0.00 | 0.00 | 0.00 | 58 | 1011.8 |
| 20260905210124 | 96 | 157 | 3.0 | 7.0 | 0.00 | 0.00 | 0.00 | 59 | 1011.9 |
| 20260905205648 | 96 | 145 | 5.0 | 8.0 | 0.00 | 0.00 | 0.00 | 58 | 1011.8 |
| 20260905205150 | 96 | 148 | 3.0 | 12.0 | 0.00 | 0.00 | 0.00 | 58 | 1011.8 |
| 20260905204616 | 95 | 149 | 3.0 | 12.0 | 0.00 | 0.00 | 0.00 | 61 | 1012.0 |
| 20260905204117 | 95 | 141 | 4.0 | 7.0 | 0.00 | 0.00 | 0.00 | 61 | 1012.0 |
| 20260905203619 | 95 | 198 | 4.0 | 7.0 | 0.00 | 0.00 | 0.00 | 57 | 1012.0 |
| 20260905203122 | 95 | 147 | 1.0 | 5.0 | 0.00 | 0.00 | 0.00 | 58 | 1012.0 |
| 20260905202644 | 96 | 184 | 3.0 | 7.0 | 0.00 | 0.00 | 0.00 | 58 | 1012.1 |
| 20260905202125 | 96 | 111 | 2.0 | 7.0 | 0.00 | 0.00 | 0.00 | 56 | 1012.2 |
| 20260905201625 | 97 | 160 | 3.0 | 8.0 | 0.00 | 0.00 | 0.00 | 55 | 1012.3 |
| 20260905201125 | 98 | 155 | 4.0 | 8.0 | 0.00 | 0.00 | 0.00 | 55 | 1012.3 |
| 20260905200627 | 98 | 156 | 3.0 | 7.0 | 0.00 | 0.00 | 0.00 | 57 | 1012.2 |
| 20260905200114 | 97 | 5 | 2.0 | 7.0 | 0.00 | 0.00 | 0.00 | 59 | 1012.2 |
| 20260905195611 | 97 | 105 | 1.0 | 7.0 | 0.00 | 0.00 | 0.00 | 57 | 1012.2 |
| 20260905195117 | 97 | 186 | 3.0 | 7.0 | 0.00 | 0.00 | 0.00 | 58 | 1012.2 |
| 20260905194619 | 96 | 59 | 0.0 | 7.0 | 0.00 | 0.00 | 0.00 | 60 | 1012.2 |
| 20260905194118 | 96 | 193 | 3.0 | 9.0 | 0.00 | 0.00 | 0.00 | 58 | 1012.3 |
| 20260905193619 | 96 | 155 | 2.0 | 9.0 | 0.00 | 0.00 | 0.00 | 58 | 1012.3 |
| 20260905193121 | 96 | 330 | 4.0 | 9.0 | 0.00 | 0.00 | 0.00 | 59 | 1012.2 |
| 20260905192622 | 96 | 266 | 1.0 | 9.0 | 0.00 | 0.00 | 0.00 | 59 | 1012.4 |
| 20260905192122 | 95 | 335 | 3.0 | 9.0 | 0.00 | 0.00 | 0.00 | 60 | 1012.5 |
| 20260905191621 | 95 | 264 | 4.0 | 8.0 | 0.00 | 0.00 | 0.00 | 61 | 1012.6 |
| 20260905191120 | 95 | 150 | 5.0 | 10.0 | 0.00 | 0.00 | 0.00 | 62 | 1012.7 |
| 20260905190642 | 96 | 153 | 9.0 | 10.0 | 0.00 | 0.00 | 0.00 | 59 | 1012.7 |
| 20260905190124 | 96 | 207 | 2.0 | 8.0 | 0.00 | 0.00 | 0.00 | 59 | 1012.9 |
| 20260905185626 | 97 | 259 | 2.0 | 13.0 | 0.00 | 0.00 | 0.00 | 58 | 1013.0 |
| 20260905185129 | 98 | 259 | 5.0 | 13.0 | 0.00 | 0.00 | 0.00 | 57 | 1012.9 |
| 20260905184629 | 99 | 186 | 2.0 | 7.0 | 0.00 | 0.00 | 0.00 | 54 | 1013.0 |
| 20260905184130 | 99 | 147 | 4.0 | 10.0 | 0.00 | 0.00 | 0.00 | 48 | 1013.1 |
| 20260905183630 | 99 | 21 | 3.0 | 12.0 | 0.00 | 0.00 | 0.00 | 48 | 1013.2 |
| 20260905183118 | 99 | 24 | 8.0 | 12.0 | 0.00 | 0.00 | 0.00 | 47 | 1013.2 |
| 20260905182618 | 98 | 5 | 4.0 | 9.0 | 0.00 | 0.00 | 0.00 | 49 | 1013.3 |
| 20260905182120 | 98 | 59 | 3.0 | 7.0 | 0.00 | 0.00 | 0.00 | 53 | 1013.5 |
| 20260905181622 | 98 | 39 | 2.0 | 11.0 | 0.00 | 0.00 | 0.00 | 51 | 1013.7 |
| 20260905181138 | 98 | 70 | 2.0 | 11.0 | 0.00 | 0.00 | 0.00 | 49 | 1013.7 |
| 20260905180619 | 99 | 346 | 5.0 | 11.0 | 0.00 | 0.00 | 0.00 | 47 | 1013.8 |
| 20260905180140 | 99 | 94 | 5.0 | 11.0 | 0.00 | 0.00 | 0.00 | 49 | 1013.8 |
| 20260905175640 | 99 | 44 | 2.0 | 9.0 | 0.00 | 0.00 | 0.00 | 48 | 1013.8 |
| 20260905175120 | 99 | 57 | 4.0 | 9.0 | 0.00 | 0.00 | 0.00 | 48 | 1013.9 |
| 20260905174621 | 98 | 33 | 3.0 | 10.0 | 0.00 | 0.00 | 0.00 | 49 | 1013.9 |
| 20260905174122 | 98 | 66 | 5.0 | 10.0 | 0.00 | 0.00 | 0.00 | 51 | 1014.0 |
| 20260905173622 | 97 | 19 | 3.0 | 8.0 | 0.00 | 0.00 | 0.00 | 52 | 1014.0 |
| 20260905173123 | 96 | 38 | 4.0 | 8.0 | 0.00 | 0.00 | 0.00 | 55 | 1014.1 |
| 20260905172625 | 96 | 22 | 1.0 | 7.0 | 0.00 | 0.00 | 0.00 | 55 | 1014.2 |
| 20260905172140 | 95 | 81 | 3.0 | 8.0 | 0.00 | 0.00 | 0.00 | 55 | 1014.3 |
| 20260905171644 | 95 | 136 | 1.0 | 6.0 | 0.00 | 0.00 | 0.00 | 59 | 1014.4 |
| 20260905171125 | 94 | 327 | 4.0 | 6.0 | 0.00 | 0.00 | 0.00 | 58 | 1014.3 |
| 20260905170627 | 94 | 22 | 3.0 | 5.0 | 0.00 | 0.00 | 0.00 | 59 | 1014.5 |
| 20260905170111 | 93 | 290 | 3.0 | 5.0 | 0.00 | 0.00 | 0.00 | 60 | 1014.5 |
| 20260905165613 | 93 | 26 | 2.0 | 5.0 | 0.00 | 0.00 | 0.00 | 61 | 1014.7 |
| 20260905165112 | 93 | 11 | 3.0 | 8.0 | 0.00 | 0.00 | 0.00 | 61 | 1014.6 |
| 20260905164618 | 92 | 346 | 2.0 | 8.0 | 0.00 | 0.00 | 0.00 | 60 | 1014.6 |
| 20260905164118 | 92 | 355 | 4.0 | 8.0 | 0.00 | 0.00 | 0.00 | 62 | 1014.7 |
| 20260905163621 | 92 | 322 | 2.0 | 4.0 | 0.00 | 0.00 | 0.00 | 61 | 1014.7 |
| 20260905163146 | 92 | 5 | 2.0 | 4.0 | 0.00 | 0.00 | 0.00 | 61 | 1014.7 |
| 20260905162621 | 92 | 23 | 1.0 | 8.0 | 0.00 | 0.00 | 0.00 | 61 | 1014.8 |
| 20260905162122 | 92 | 73 | 3.0 | 12.0 | 0.00 | 0.00 | 0.00 | 61 | 1014.9 |
| 20260905161627 | 92 | 270 | 7.0 | 12.0 | 0.00 | 0.00 | 0.00 | 61 | 1015.0 |
| 20260905161127 | 92 | 5 | 5.0 | 10.0 | 0.00 | 0.00 | 0.00 | 61 | 1015.0 |
| 20260905160628 | 92 | 15 | 4.0 | 10.0 | 0.00 | 0.00 | 0.00 | 61 | 1015.0 |
| 20260905160114 | 92 | 336 | 5.0 | 10.0 | 0.00 | 0.00 | 0.00 | 63 | 1015.1 |
| 20260905155616 | 91 | 5 | 4.0 | 10.0 | 0.00 | 0.00 | 0.00 | 64 | 1015.0 |
| 20260905155119 | 90 | 341 | 4.0 | 10.0 | 0.00 | 0.00 | 0.00 | 66 | 1014.9 |
| 20260905154620 | 90 | 332 | 3.0 | 12.0 | 0.00 | 0.00 | 0.00 | 65 | 1014.9 |
| 20260905154122 | 89 | 21 | 6.0 | 10.0 | 0.00 | 0.00 | 0.00 | 66 | 1014.9 |
| 20260905153622 | 88 | 35 | 7.0 | 12.0 | 0.00 | 0.00 | 0.00 | 67 | 1014.9 |
| 20260905153121 | 88 | 19 | 7.0 | 12.0 | 0.00 | 0.00 | 0.00 | 69 | 1014.8 |
| 20260905152622 | 87 | 360 | 3.0 | 8.0 | 0.00 | 0.00 | 0.00 | 71 | 1014.7 |
| 20260905152143 | 87 | 19 | 4.0 | 9.0 | 0.00 | 0.00 | 0.00 | 71 | 1014.7 |
| 20260905151646 | 86 | 348 | 5.0 | 11.0 | 0.00 | 0.00 | 0.00 | 73 | 1014.7 |
| 20260905151126 | 86 | 330 | 4.0 | 11.0 | 0.00 | 0.00 | 0.00 | 74 | 1014.8 |
| 20260905150627 | 85 | 355 | 4.0 | 11.0 | 0.00 | 0.00 | 0.00 | 73 | 1014.8 |
| 20260905150130 | 85 | 317 | 3.0 | 11.0 | 0.00 | 0.00 | 0.00 | 74 | 1014.8 |
| 20260905145615 | 85 | 344 | 7.0 | 12.0 | 0.00 | 0.00 | 0.00 | 74 | 1014.9 |
| 20260905145116 | 85 | 333 | 8.0 | 11.0 | 0.00 | 0.00 | 0.00 | 75 | 1014.8 |
| 20260905144618 | 84 | 323 | 8.0 | 12.0 | 0.00 | 0.00 | 0.00 | 75 | 1014.9 |
| 20260905144120 | 84 | 349 | 8.0 | 12.0 | 0.00 | 0.00 | 0.00 | 75 | 1014.9 |
| 20260905143641 | 84 | 355 | 6.0 | 10.0 | 0.00 | 0.00 | 0.00 | 76 | 1015.0 |
| 20260905143118 | 83 | 21 | 6.0 | 10.0 | 0.00 | 0.00 | 0.00 | 79 | 1014.9 |
| 20260905142621 | 83 | 360 | 5.0 | 10.0 | 0.00 | 0.00 | 0.00 | 80 | 1015.1 |
| 20260905142122 | 83 | 319 | 6.0 | 12.0 | 0.00 | 0.00 | 0.00 | 81 | 1015.0 |
| 20260905141625 | 82 | 323 | 7.0 | 12.0 | 0.00 | 0.00 | 0.00 | 81 | 1015.0 |
| 20260905141125 | 82 | 337 | 4.0 | 6.0 | 0.00 | 0.00 | 0.00 | 83 | 1015.1 |
| 20260905140627 | 81 | 351 | 3.0 | 8.0 | 0.00 | 0.00 | 0.00 | 84 | 1015.1 |
| 20260905140130 | 81 | 313 | 3.0 | 8.0 | 0.00 | 0.00 | 0.00 | 85 | 1015.1 |
| 20260905135618 | 80 | 347 | 4.0 | 9.0 | 0.00 | 0.00 | 0.00 | 85 | 1015.0 |
| 20260905135120 | 80 | 347 | 4.0 | 10.0 | 0.00 | 0.00 | 0.00 | 86 | 1015.1 |
| 20260905134621 | 80 | 342 | 4.0 | 10.0 | 0.00 | 0.00 | 0.00 | 86 | 1015.1 |
| 20260905134123 | 79 | 335 | 4.0 | 6.0 | 0.00 | 0.00 | 0.00 | 87 | 1015.0 |
| 20260905133623 | 79 | 16 | 3.0 | 6.0 | 0.00 | 0.00 | 0.00 | 88 | 1015.0 |
| 20260905133125 | 78 | 355 | 3.0 | 5.0 | 0.00 | 0.00 | 0.00 | 88 | 1015.0 |
| 20260905132626 | 78 | 13 | 3.0 | 6.0 | 0.00 | 0.00 | 0.00 | 89 | 1015.0 |
| 20260905132125 | 78 | 340 | 3.0 | 8.0 | 0.00 | 0.00 | 0.00 | 89 | 1014.9 |
| 20260905131626 | 78 | 344 | 4.0 | 8.0 | 0.00 | 0.00 | 0.00 | 90 | 1015.0 |
| 20260905131127 | 77 | 329 | 4.0 | 9.0 | 0.00 | 0.00 | 0.00 | 90 | 1015.1 |
| 20260905130615 | 77 | 336 | 5.0 | 9.0 | 0.00 | 0.00 | 0.00 | 90 | 1015.0 |
| 20260905130117 | 77 | 334 | 4.0 | 9.0 | 0.00 | 0.00 | 0.00 | 90 | 1015.2 |
| 20260905125616 | 77 | 337 | 4.0 | 9.0 | 0.00 | 0.00 | 0.00 | 90 | 1015.3 |
| 20260905125137 | 77 | 325 | 5.0 | 8.0 | 0.00 | 0.00 | 0.00 | 90 | 1015.2 |
| 20260905124635 | 76 | 337 | 5.0 | 9.0 | 0.00 | 0.00 | 0.00 | 91 | 1015.2 |
| 20260905124138 | 76 | 341 | 5.0 | 9.0 | 0.00 | 0.00 | 0.00 | 91 | 1015.1 |
| 20260905123613 | 76 | 340 | 5.0 | 9.0 | 0.00 | 0.00 | 0.00 | 91 | 1015.0 |
| 20260905123116 | 76 | 331 | 5.0 | 9.0 | 0.00 | 0.00 | 0.00 | 91 | 1014.9 |
| 20260905122617 | 76 | 325 | 6.0 | 9.0 | 0.00 | 0.00 | 0.00 | 92 | 1015.0 |
| 20260905122117 | 75 | 331 | 6.0 | 9.0 | 0.00 | 0.00 | 0.00 | 91 | 1015.1 |
| 20260905121617 | 75 | 321 | 5.0 | 9.0 | 0.00 | 0.00 | 0.00 | 92 | 1015.0 |
| 20260905121118 | 75 | 336 | 6.0 | 9.0 | 0.00 | 0.00 | 0.00 | 92 | 1014.9 |
| 20260905120638 | 75 | 335 | 6.0 | 9.0 | 0.00 | 0.00 | 0.00 | 92 | 1014.8 |
| 20260905120118 | 75 | 323 | 6.0 | 10.0 | 0.00 | 0.00 | 0.00 | 92 | 1014.8 |
| 20260905115621 | 75 | 329 | 5.0 | 10.0 | 0.00 | 0.00 | 0.00 | 92 | 1014.7 |
| 20260905115125 | 75 | 315 | 7.0 | 11.0 | 0.00 | 0.00 | 0.00 | 92 | 1014.8 |
| 20260905114641 | 75 | 316 | 5.0 | 11.0 | 0.00 | 0.00 | 0.00 | 92 | 1014.7 |
| 20260905114123 | 75 | 318 | 7.0 | 10.0 | 0.00 | 0.00 | 0.00 | 92 | 1014.7 |
| 20260905113643 | 75 | 319 | 6.0 | 11.0 | 0.00 | 0.00 | 0.00 | 92 | 1014.7 |
| 20260905113124 | 75 | 313 | 7.0 | 11.0 | 0.00 | 0.00 | 0.00 | 92 | 1014.6 |
| 20260905112648 | 75 | 312 | 5.0 | 11.0 | 0.00 | 0.00 | 0.00 | 92 | 1014.6 |
| 20260905112129 | 75 | 321 | 7.0 | 11.0 | 0.00 | 0.00 | 0.00 | 92 | 1014.6 |
| 20260905111618 | 75 | 310 | 5.0 | 9.0 | 0.00 | 0.00 | 0.00 | 92 | 1014.6 |